Location: Newark
(41.7772°N, 74.7403°W)
Time: 12:47:25
(UTC+00:00)

Transit 4A - Pass Details

Date: 30 May 2020
Orbit: 866 x 978 km, 66.8° (Epoch: 06 July)

Event Time Altitude Azimuth Distance (km) Brightness Sun altitude
Exits shadow 05:28:33 23° 111° (ESE) 1,785 9.2 -26.0°
Maximum altitude 05:28:53 23° 106° (ESE) 1,781 9.3 -25.9°
Drops below altitude 10° 05:33:19 10° 57° (ENE) 2,539 10.7 -25.8°
Sets 05:36:19 0° 43° (NE) 3,498 11.8 -25.7°
